HST,Max TemperatureF,Mean TemperatureF,Min TemperatureF,Max Dew PointF,MeanDew PointF,Min DewpointF,Max Humidity, Mean Humidity, Min Humidity, Max Sea Level PressureIn, Mean Sea Level PressureIn, Min Sea Level PressureIn, Max VisibilityMiles, Mean VisibilityMiles, Min VisibilityMiles, Max Wind SpeedMPH, Mean Wind SpeedMPH, Max Gust SpeedMPH,PrecipitationIn, CloudCover, Events, WindDirDegrees
2012-12-1,82,73,64,66,62,55,73,63,54,30.07,30.03,29.98,15,15,15,14,7,,0.00,1,,156
2012-12-2,82,76,71,73,66,63,83,71,51,30.10,29.99,29.89,15,15,10,22,5,28,0.00,7,Rain,211
2012-12-3,82,78,75,72,69,68,83,73,62,30.00,29.96,29.93,15,15,10,17,15,22,0.00,4,,192
2012-12-4,82,76,71,72,68,64,83,74,62,30.05,30.02,29.98,15,14,10,12,6,,0.00,2,,65
2012-12-5,82,78,75,72,69,68,83,73,62,30.11,30.06,30.00,15,12,10,8,3,,0.00,7,,20
2012-12-6,82,76,71,66,65,64,78,67,58,30.01,29.96,29.89,15,15,15,12,7,20,0.00,3,,185
2012-12-7,82,76,69,66,63,61,78,60,48,30.03,29.97,29.90,15,15,15,14,5,17,0.00,3,,25
2012-12-8,80,74,68,66,63,57,73,66,54,29.99,29.94,29.89,15,15,15,23,11,,0.00,4,Rain,51
2012-12-9,80,76,73,66,64,63,73,66,61,29.98,29.94,29.88,15,15,10,23,15,33,0.00,3,Rain,77
2012-12-10,80,76,73,63,61,59,69,59,48,30.03,29.99,29.95,15,15,15,23,18,31,0.00,2,,73
2012-12-11,78,74,71,63,60,59,64,58,51,30.08,30.05,30.01,15,15,15,21,15,38,0.00,6,,60
2012-12-12,77,74,71,64,61,59,73,65,57,30.11,30.06,30.02,15,15,15,21,17,31,0.00,3,Rain,67
2012-12-13,77,72,68,64,62,59,88,71,54,30.14,30.10,30.05,15,12,5,16,12,28,0.00,5,Rain,63
2012-12-14,77,74,71,64,62,59,78,67,57,30.16,30.11,30.07,15,15,15,25,14,38,0.00,3,Rain,71
2012-12-15,82,76,69,63,62,59,78,65,45,30.15,30.09,30.04,15,15,15,23,17,32,0.00,3,,58
2012-12-16,78,74,69,64,63,59,78,68,57,30.12,30.07,30.02,15,15,10,21,13,30,0.00,3,Rain,65
2012-12-17,75,72,68,68,65,63,88,81,65,30.11,30.08,30.03,15,7,2,20,16,30,0.00,5,Rain,48
2012-12-18,78,76,73,64,60,57,73,59,50,30.09,30.05,30.00,15,15,15,21,12,37,0.00,1,,82
2012-12-19,75,73,71,66,65,63,83,78,69,30.06,30.02,29.98,15,14,10,23,13,34,0.00,5,Rain,50
2012-12-20,71,70,68,66,65,63,94,87,83,30.07,30.01,29.97,10,6,3,31,22,39,0.00,5,Rain,52
2012-12-21,77,72,68,63,60,57,73,64,54,30.06,30.01,29.98,15,15,15,21,18,31,0.00,3,,74
2012-12-22,77,73,69,63,60,55,69,62,50,30.08,30.01,29.95,15,15,15,25,19,,0.00,2,Rain,68
2012-12-23,78,71,64,63,59,55,77,62,54,30.06,30.00,29.94,15,15,10,14,7,,0.00,4,,107
2012-12-24,77,72,66,66,66,64,94,78,65,30.02,29.98,29.95,15,13,10,9,4,,0.00,7,Rain,125
2012-12-25,77,74,71,66,64,57,83,70,57,30.05,30.02,29.99,15,15,15,23,11,32,0.00,6,,67
2012-12-26,77,74,71,64,63,59,73,65,61,30.06,30.01,29.94,15,15,15,23,17,30,0.00,3,Rain,72
2012-12-27,77,73,69,63,60,55,69,60,50,30.03,29.98,29.83,15,15,15,21,15,28,0.00,1,,79
2012-12-28,80,72,64,63,60,59,83,61,48,30.02,29.97,29.93,15,15,15,7,4,,0.00,2,,345
2012-12-29,80,73,66,64,62,57,78,67,58,30.06,30.00,29.94,15,15,15,20,7,,0.00,1,,72
2012-12-30,80,74,68,66,65,63,88,69,54,30.05,29.99,29.95,15,15,10,10,6,,0.00,4,,194
2012-12-31,80,74,68,68,67,63,88,76,65,30.07,30.03,29.99,15,14,10,14,8,,0.00,2,,42